{"data":{"norad_id":56133,"intl_designator":"2023-046AT","name":"STARLINK-5566","alt_names":[],"object_type":"PAYLOAD","status":"ACTIVE","operator":null,"country":"US","launch_date":"2023-03-29","launch_site_code":"AFETR","launch_vehicle":null,"mission":null,"orbit_class":"UNKNOWN","rcs_meters":null,"size_class":null,"mass_kg":null,"dimensions":null,"purposes":["comms"],"wikipedia_slug":null,"has_3d_model":false,"image_url":null,"decayed_at":null,"tle_current":{"epoch":"2026-09-20T08:21:00.418464Z","epoch_age_seconds":121948,"freshness":"FRESH","line1":"1 56133U 23046AT  26263.34792151 -.00000221  00000+0  15013-5 0  9994","line2":"2 56133  43.0037 127.4006 0001778 263.3250  96.7399 15.27574695191972","mean_motion":15.27574695,"eccentricity":0.0001778,"inclination_deg":43.0037,"raan_deg":127.4006,"arg_perigee_deg":263.325,"mean_anomaly_deg":96.7399,"bstar":1.5013e-6,"rev_number":19197,"period_min":94.267076085599,"perigee_km":481.84505945184,"apogee_km":484.28490287634,"semimajor_km":6861.2019811641,"source":"CELESTRAK","updated_at":"2026-09-21T09:00:33.388497Z"}}}